[[{"header":{"parameterUnit":"m.s-1","parameterCategory":1,"la1":30.2991,"la2":30.254,"lo1":-89.0895,"lo2":-89.0444,"dy":0.0017,"dx":0.0017,"nx":28,"ny":28,"refTime":"2024-06-14T09:00:00:Z","depth":0,"parameterNumber":2,"parameterNumberName":"U-component_of_WINDS"},"data":[0,0,0,0,0,0,0,0,0,0,0,0,0,0,0,0,0,0,0,0,0,0,0,0,0,0,0,0,0,0,0,0,0,0,0,0,0,0,0,0,0,0,0,0,0,0,0,0,0,0,0,0,0,0,0,0,0,0,-0.8783,-0.8782,0,-0.8763,-0.8763,-0.8762,-0.8771,-0.8771,-0.8772,-0.8772,-0.8751,-0.875,-0.8749,0,0,0,0,0,0,0,0,0,0,0,0,0,-0.8827,-0.8826,-0.8783,-0.8782,-0.8782,-0.8763,-0.8762,-0.8762,-0.8771,-0.8771,-0.8772,-0.8773,-0.8751,-0.875,-0.8749,0,0,0,0,0,0,0,0,0,0,0,0,0,-0.8808,-0.8826,-0.8783,-0.8784,-0.8784,-0.8763,-0.8762,-0.8762,-0.8771,-0.8772,-0.8772,-0.8773,-0.8752,-0.875,-0.8748,-0.8724,0,0,-0.8744,-0.8743,0,0,0,0,0,0,0,0,-0.8809,-0.8806,-0.8784,-0.8784,-0.8784,-0.877,-0.877,-0.8749,-0.8771,-0.8776,-0.8772,-0.8773,-0.8757,-0.8755,-0.8749,-0.8723,-0.8722,-0.8744,-0.8743,-0.8742,-0.8742,0,0,0,0,0,0,0,-0.881,-0.8807,-0.8775,-0.8784,-0.8784,-0.8786,-0.8784,-0.8766,-0.8762,-0.8775,-0.8776,-0.8774,-0.8757,-0.8751,-0.8749,-0.8722,-0.8744,-0.8742,-0.8741,-0.8741,-0.8675,-0.8674,0,0,0,0,0,0,-0.8812,-0.8808,-0.8775,-0.8774,-0.8799,-0.8784,-0.8782,-0.8774,-0.8762,-0.8761,-0.8773,-0.8774,-0.8753,-0.8751,-0.8748,-0.8719,-0.8742,-0.8741,-0.874,-0.8676,-0.8675,-0.8674,0,0,0,0,0,0,-0.8813,-0.8809,-0.8776,-0.8791,-0.8787,-0.8783,-0.8773,-0.8773,-0.8767,-0.8761,-0.876,-0.8768,-0.8753,-0.875,-0.873,-0.8718,-0.874,-0.8738,-0.8677,-0.8676,-0.8674,-0.866,0,0,0,0,0,0,-0.8814,-0.8809,-0.88,-0.8791,-0.8786,-0.8759,-0.8773,-0.8772,-0.8765,-0.8766,-0.8756,-0.8754,-0.8754,-0.8732,-0.8729,-0.8716,-0.8737,-0.8678,-0.8676,-0.8675,-0.8661,-0.8658,-0.8656,0,0,0,0,0,-0.8815,-0.8796,-0.8799,-0.8795,-0.8775,-0.8758,-0.8755,-0.8755,-0.8764,-0.8754,-0.875,-0.8755,-0.872,-0.873,-0.8726,-0.8713,-0.8679,-0.8677,-0.8675,-0.8663,-0.8659,-0.8656,0,0,0,0,0,0,-0.8803,-0.8795,-0.8798,-0.8776,-0.8768,-0.876,-0.8748,-0.8751,-0.874,-0.8742,-0.8742,-0.8739,-0.8719,-0.8714,-0.8725,-0.8689,-0.8701,-0.8698,-0.8693,-0.8689,-0.8686,-0.8688,-0.8736,0,0,0,0,0,-0.8798,-0.8785,-0.8779,-0.8759,-0.8755,-0.8752,-0.8745,-0.8746,-0.8737,-0.8733,-0.8728,-0.8719,-0.8706,-0.8697,-0.8685,-0.8661,-0.8659,-0.865,-0.8647,-0.8645,-0.8642,-0.8629,-0.8625,-0.8668,-0.8668,-0.8668,0,0,-0.8786,-0.8781,-0.8772,-0.8757,-0.875,-0.8737,-0.8749,-0.8734,-0.8724,-0.8731,-0.8712,-0.8707,-0.8697,-0.8675,-0.8665,-0.8671,-0.863,-0.8643,-0.8641,-0.864,-0.8627,-0.8623,-0.8619,-0.8667,-0.8667,-0.8667,0,0,-0.8759,-0.8753,-0.8737,-0.873,-0.8721,-0.8719,-0.8715,-0.8707,-0.8705,-0.8685,-0.869,-0.8678,-0.8656,-0.8649,-0.8642,-0.8613,-0.8617,-0.8609,-0.8594,-0.8581,-0.8578,-0.8575,-0.8564,-0.856,-0.8607,-0.8607,-0.8607,0,-0.8746,-0.8726,-0.8728,-0.8713,-0.8705,-0.8712,-0.8695,-0.8688,-0.8675,-0.867,-0.8677,-0.8649,-0.8643,-0.8619,-0.8612,-0.8607,-0.8602,-0.861,-0.8578,-0.8575,-0.8573,-0.8562,-0.8558,-0.8606,-0.8606,-0.8606,-0.8606,0,-0.8711,-0.8697,-0.8685,-0.8672,-0.8664,-0.8648,-0.8647,-0.8638,-0.864,-0.8637,-0.8618,-0.8611,-0.8597,-0.8592,-0.8593,-0.8568,-0.8572,-0.8579,-0.859,-0.8568,-0.8558,-0.8554,-0.8604,-0.8605,-0.8605,-0.8605,0,0,-0.8674,-0.8663,-0.8659,-0.8653,-0.8644,-0.8633,-0.8618,-0.8605,-0.8597,-0.8589,-0.8575,-0.8557,-0.8563,-0.8555,-0.8556,-0.8545,-0.8522,-0.8553,-0.8553,-0.8547,-0.8494,-0.8489,-0.8484,-0.8525,-0.8524,-0.8524,-0.8495,0,-0.8645,-0.8618,-0.8619,-0.8594,-0.8581,-0.8588,-0.8574,-0.8567,-0.8564,-0.8553,-0.855,-0.8537,-0.8546,-0.8542,-0.8531,-0.8527,-0.8511,-0.8529,-0.8512,-0.8512,-0.8514,-0.8479,-0.8474,-0.8447,-0.8491,-0.849,-0.849,0,-0.8608,-0.8599,-0.8572,-0.8565,-0.856,-0.8548,-0.8536,-0.8526,-0.8517,-0.8516,-0.8509,-0.8511,-0.8495,-0.8508,-0.8486,-0.8498,-0.8491,-0.8488,-0.8487,-0.8485,-0.8499,-0.8476,-0.8438,-0.8434,-0.8484,-0.8485,-0.8485,0,-0.8583,-0.8564,-0.8546,-0.8541,-0.8532,-0.8524,-0.852,-0.8512,-0.8505,-0.8495,-0.849,-0.8478,-0.8472,-0.8463,-0.8462,-0.8471,-0.844,-0.8452,-0.8438,-0.8438,-0.843,-0.8431,-0.8391,-0.8427,-0.8427,-0.8427,-0.8427,0,-0.8551,-0.8534,-0.8535,-0.8523,-0.8505,-0.8507,-0.8488,-0.8485,-0.8479,-0.8467,-0.8471,-0.846,-0.846,-0.8448,-0.8448,-0.843,-0.8427,-0.8425,-0.8425,-0.8424,-0.8425,-0.8419,-0.8421,-0.8426,-0.8426,-0.8426,-0.8427,0,-0.852,-0.8519,-0.85,-0.8494,-0.8492,-0.8478,-0.8473,-0.8462,-0.846,-0.8445,-0.8442,-0.8439,-0.8425,-0.8424,-0.8409,-0.8408,-0.8386,-0.8388,-0.8389,-0.8389,-0.8375,-0.8376,-0.8329,-0.8323,-0.8364,-0.8364,-0.8363,0,-0.8499,-0.8486,-0.8479,-0.8472,-0.8467,-0.8455,-0.8448,-0.8449,-0.8441,-0.8432,-0.8422,-0.8409,-0.8399,-0.8377,-0.8373,-0.8361,-0.8363,-0.8348,-0.8361,-0.8361,-0.8362,-0.8363,-0.8362,-0.8345,-0.8344,-0.8344,-0.8344,0,-0.8462,-0.8462,-0.8452,-0.8441,-0.8432,-0.8424,-0.8416,-0.841,-0.841,-0.8401,-0.8388,-0.838,-0.8364,-0.8351,-0.834,-0.8335,-0.8339,-0.834,-0.8336,-0.8334,-0.8335,-0.8334,-0.8381,-0.834,-0.8341,-0.8341,-0.8341,-0.8341,-0.8435,-0.8424,-0.8417,-0.8406,-0.84,-0.8393,-0.8382,-0.838,-0.8369,-0.8357,-0.8358,-0.8343,-0.8336,-0.8321,-0.8316,-0.8304,-0.8309,-0.8303,-0.8302,-0.83,-0.8298,-0.8338,-0.8302,-0.8302,-0.8302,-0.8302,-0.8302,0,-0.8397,-0.8394,-0.8383,-0.8372,-0.8363,-0.8369,-0.836,-0.8352,-0.8339,-0.8332,-0.8322,-0.8307,-0.8295,-0.829,-0.8278,-0.827,-0.8271,-0.8267,-0.8267,-0.8266,-0.8295,-0.8299,-0.8266,-0.8266,-0.8266,-0.8266,-0.8266,-0.8266,-0.8377,-0.8359,-0.8359,-0.8339,-0.8335,-0.8321,-0.8316,-0.8309,-0.8303,-0.8286,-0.8276,-0.8274,-0.8268,-0.8256,-0.8245,-0.8244,-0.8239,-0.8233,-0.8233,-0.826,-0.8264,-0.8267,-0.8271,-0.8232,-0.8232,-0.8205,-0.8205,-0.8205]},{"header":{"parameterUnit":"m.s-1","parameterCategory":1,"la1":30.2991,"la2":30.254,"lo1":-89.0895,"lo2":-89.0444,"dy":0.0017,"dx":0.0017,"nx":28,"ny":28,"refTime":"2024-06-14T09:00:00:Z","depth":0,"parameterNumber":3,"parameterNumberName":"V-component_of_WINDS"},"data":[0,0,0,0,0,0,0,0,0,0,0,0,0,0,0,0,0,0,0,0,0,0,0,0,0,0,0,0,0,0,0,0,0,0,0,0,0,0,0,0,0,0,0,0,0,0,0,0,0,0,0,0,0,0,0,0,0,0,-2.863,-2.8632,0,-2.8736,-2.8737,-2.8738,-2.8756,-2.8755,-2.8754,-2.8753,-2.8858,-2.8862,-2.8865,0,0,0,0,0,0,0,0,0,0,0,0,0,-2.8444,-2.8447,-2.863,-2.8632,-2.8633,-2.8735,-2.8737,-2.8738,-2.8756,-2.8755,-2.8754,-2.8753,-2.8857,-2.8861,-2.8866,0,0,0,0,0,0,0,0,0,0,0,0,0,-2.8534,-2.8448,-2.863,-2.8654,-2.8657,-2.8735,-2.8737,-2.8739,-2.8756,-2.8755,-2.8753,-2.8752,-2.8856,-2.8861,-2.8866,-2.8926,0,0,-2.8883,-2.8885,0,0,0,0,0,0,0,0,-2.8529,-2.8541,-2.8649,-2.8653,-2.8656,-2.8731,-2.871,-2.8801,-2.8756,-2.8719,-2.8753,-2.8752,-2.8817,-2.8825,-2.8848,-2.8931,-2.8936,-2.8883,-2.8887,-2.8889,-2.889,0,0,0,0,0,0,0,-2.8523,-2.8537,-2.8672,-2.8651,-2.8655,-2.8659,-2.8671,-2.8727,-2.8774,-2.8722,-2.8723,-2.8736,-2.8818,-2.8843,-2.885,-2.8937,-2.8883,-2.8888,-2.8891,-2.8893,-2.9078,-2.908,0,0,0,0,0,0,-2.8513,-2.8531,-2.8669,-2.8675,-2.8588,-2.8664,-2.8677,-2.8709,-2.8773,-2.8782,-2.8737,-2.8736,-2.8834,-2.8844,-2.8854,-2.8931,-2.8889,-2.8894,-2.8897,-2.9076,-2.9078,-2.908,0,0,0,0,0,0,-2.8509,-2.8525,-2.8664,-2.8604,-2.8622,-2.8669,-2.8704,-2.8711,-2.8736,-2.8785,-2.8793,-2.8753,-2.8833,-2.8847,-2.8909,-2.8935,-2.8896,-2.8901,-2.9075,-2.9077,-2.9079,-2.9084,0,0,0,0,0,0,-2.8503,-2.8523,-2.8547,-2.8604,-2.8625,-2.8718,-2.8706,-2.8714,-2.8745,-2.8745,-2.8802,-2.881,-2.8833,-2.8901,-2.8915,-2.8942,-2.8906,-2.9072,-2.9076,-2.9079,-2.9082,-2.9087,-2.9091,0,0,0,0,0,-2.8496,-2.8543,-2.8548,-2.8564,-2.8656,-2.8719,-2.8731,-2.8758,-2.8747,-2.8771,-2.8803,-2.8808,-2.893,-2.8907,-2.8923,-2.8952,-2.9071,-2.9075,-2.9078,-2.908,-2.9086,-2.9091,0,0,0,0,0,0,-2.8485,-2.855,-2.8557,-2.8623,-2.8666,-2.8722,-2.8753,-2.8762,-2.8808,-2.8806,-2.8836,-2.8849,-2.8911,-2.8937,-2.8911,-2.9015,-2.9,-2.9006,-2.8996,-2.9001,-2.9006,-2.8999,-2.891,0,0,0,0,0,-2.8491,-2.8538,-2.8592,-2.8645,-2.8666,-2.8706,-2.8735,-2.8752,-2.8797,-2.8814,-2.8851,-2.8894,-2.8942,-2.8973,-2.9019,-2.9086,-2.9099,-2.9113,-2.9118,-2.9121,-2.9127,-2.9167,-2.9174,-2.9092,-2.9092,-2.9092,0,0,-2.8502,-2.8544,-2.8571,-2.8644,-2.8679,-2.8727,-2.8721,-2.8771,-2.8808,-2.8822,-2.8884,-2.8912,-2.8962,-2.9028,-2.9058,-2.9052,-2.9153,-2.9126,-2.9128,-2.9133,-2.9171,-2.9179,-2.9186,-2.9095,-2.9094,-2.9094,0,0,-2.8548,-2.8583,-2.8633,-2.8669,-2.8723,-2.8749,-2.8761,-2.8817,-2.8837,-2.89,-2.8912,-2.8955,-2.9036,-2.9073,-2.9101,-2.9163,-2.917,-2.9177,-2.92,-2.9238,-2.9245,-2.9251,-2.9275,-2.9283,-2.9183,-2.9183,-2.9183,0,-2.8555,-2.8629,-2.8657,-2.8708,-2.8741,-2.8757,-2.8808,-2.8841,-2.8907,-2.8929,-2.8921,-2.9025,-2.906,-2.9135,-2.915,-2.9172,-2.9188,-2.9172,-2.9241,-2.9248,-2.9254,-2.9277,-2.9286,-2.9183,-2.9183,-2.9183,-2.9183,0,-2.8636,-2.8687,-2.8721,-2.8786,-2.8822,-2.8872,-2.8909,-2.8941,-2.8956,-2.8983,-2.9048,-2.909,-2.9147,-2.9166,-2.9179,-2.9244,-2.9239,-2.9235,-2.9221,-2.9262,-2.9285,-2.9293,-2.9184,-2.9184,-2.9184,-2.9184,0,0,-2.8678,-2.876,-2.8772,-2.8803,-2.8864,-2.8904,-2.8955,-2.9013,-2.9041,-2.9086,-2.9131,-2.9201,-2.9199,-2.9232,-2.925,-2.9283,-2.9332,-2.9276,-2.9278,-2.9287,-2.9408,-2.9412,-2.9422,-2.9337,-2.9338,-2.934,-2.9405,0,-2.8733,-2.8827,-2.8855,-2.8934,-2.8983,-2.9,-2.9045,-2.9088,-2.9115,-2.916,-2.9189,-2.9239,-2.9232,-2.9253,-2.9286,-2.9319,-2.9357,-2.9314,-2.938,-2.9382,-2.9369,-2.9433,-2.9437,-2.9496,-2.9414,-2.9415,-2.9416,0,-2.881,-2.8858,-2.8943,-2.9001,-2.9022,-2.9062,-2.9118,-2.916,-2.9209,-2.9227,-2.9265,-2.928,-2.9335,-2.9317,-2.9394,-2.9364,-2.9392,-2.9413,-2.9416,-2.9424,-2.9403,-2.9446,-2.9516,-2.9525,-2.943,-2.9429,-2.9428,0,-2.8835,-2.8921,-2.8984,-2.9009,-2.9077,-2.9106,-2.9135,-2.9183,-2.9216,-2.9264,-2.9287,-2.934,-2.9369,-2.941,-2.944,-2.9423,-2.9515,-2.9499,-2.9533,-2.9532,-2.9552,-2.9551,-2.963,-2.9567,-2.9567,-2.9567,-2.9566,0,-2.8894,-2.8946,-2.8996,-2.9035,-2.9094,-2.9125,-2.9182,-2.9212,-2.9255,-2.93,-2.9317,-2.9359,-2.9394,-2.9441,-2.9464,-2.9526,-2.9538,-2.9555,-2.9561,-2.9555,-2.9553,-2.9575,-2.9572,-2.9569,-2.9569,-2.9568,-2.9568,0,-2.8933,-2.8968,-2.9038,-2.9098,-2.9114,-2.9155,-2.9205,-2.9244,-2.9272,-2.9329,-2.9344,-2.9388,-2.9444,-2.9478,-2.9548,-2.9563,-2.9633,-2.9635,-2.9617,-2.962,-2.9653,-2.965,-2.9751,-2.9766,-2.969,-2.9691,-2.9692,0,-2.8969,-2.901,-2.9074,-2.9107,-2.9137,-2.9188,-2.9223,-2.9255,-2.9291,-2.9351,-2.9382,-2.944,-2.9488,-2.9577,-2.9615,-2.9669,-2.9675,-2.9706,-2.9683,-2.9677,-2.9678,-2.9676,-2.9682,-2.9711,-2.9711,-2.9712,-2.9712,0,-2.9031,-2.9048,-2.9098,-2.9155,-2.9196,-2.9242,-2.9288,-2.9313,-2.9353,-2.9392,-2.9451,-2.9488,-2.9561,-2.9619,-2.9677,-2.9706,-2.9717,-2.9719,-2.973,-2.9726,-2.9714,-2.9723,-2.963,-2.9717,-2.9717,-2.9716,-2.9716,-2.9716,-2.9072,-2.911,-2.9162,-2.9218,-2.9256,-2.9299,-2.9339,-2.9373,-2.9423,-2.9486,-2.9502,-2.9564,-2.9613,-2.9693,-2.9724,-2.9773,-2.9768,-2.9783,-2.9788,-2.9792,-2.9794,-2.9705,-2.9783,-2.9783,-2.9783,-2.9783,-2.9783,0,-2.9137,-2.9172,-2.9223,-2.9288,-2.9332,-2.9339,-2.939,-2.9427,-2.9482,-2.9527,-2.9575,-2.9643,-2.9699,-2.9743,-2.98,-2.9831,-2.9838,-2.9846,-2.9845,-2.9852,-2.9794,-2.978,-2.984,-2.984,-2.984,-2.984,-2.984,-2.984,-2.9176,-2.9242,-2.9265,-2.935,-2.9384,-2.9446,-2.9476,-2.9516,-2.9553,-2.9629,-2.9677,-2.9705,-2.975,-2.9812,-2.9864,-2.9875,-2.9896,-2.9904,-2.9916,-2.9862,-2.9856,-2.985,-2.9837,-2.9908,-2.9908,-2.9971,-2.9971,-2.9972]}]]